sat.trackr.live / text

‹ back to catalog

Z-SAT

NORAD 49399 · 2021-102E

PAYLOAD ACTIVE UNKNOWN

§ Identity

Operator
Country
JPN
Launch date
2021-11-09
Launch site
KSCUT
Launch vehicle
Mass (kg)
RCS (m²)

External: N2YO · Heavens-Above · Gunter

§ Orbital elements

Epoch: 2026-05-25T04:40:58.439712Z

Period
94.86 min
Inclination
97.3340°
Eccentricity
0.0015672
Mean motion
15.18060574 rev/d
Perigee alt
500.9 km
Apogee alt
522.5 km
Semi-major
6,889.8 km
B*
1.4495e-4
RAAN
181.2174°
Arg perigee
333.2587°
Mean anomaly
26.7837°
Rev number
24,995

§ Raw data

Z-SAT1 49399U 21102E   26145.19512083  .00002894  00000+0  14495-3 0  99952 49399  97.3340 181.2174 0015672 333.2587  26.7837 15.18060574249957

JSON: /api/v1/satellites/49399 · /tle

For live sub-satellite position, see the globe view (requires WebGL).

§ Visibility from observer

Set your observer location to see the next 7 days of passes ≥ 10°. The values pass through the URL so the page stays shareable.

No JS? Fill the form by hand. The geolocation button needs JavaScript.

§ Radio — SatNOGS DB

ModeDescriptionDownlinkUplink
FSK AX.25 G3RUH Mode U/V (1k2/9k6) - BBS 145.875 MHz 435.480 MHz
FSK AX.25 G3RUH Mode V - 9K6 GMSK 145.875 MHz
CW Mode V - CW Beacon (inactive) 145.875 MHz

3 transmitters · refreshed weekly from db.satnogs.org